Regional Weather Roundup
Issued by NWS

Home | Current Version | Previous Version | Text Only | Print | Product List | Glossary Off
Versions: 1 2 3 4 5 6 7 8 9 10 11 12 13 14 15 16 17 18 19 20 21 22 23 24 25 26 27 28 29 30 31 32 33 34 35 36 37 38 39 40 41 42 43 44 45 46 47 48 49 50

000
ASUS43 KFSD 061710
RWRSD

WEATHER ROUNDUP FOR SOUTH DAKOTA
NATIONAL WEATHER SERVICE SIOUX FALLS SD
1200 PM CDT MON JUL 06 2015

NOTE: "FAIR" INDICATES FEW OR NO CLOUDS BELOW 12,000 FEET WITH NO
SIGNIFICANT WEATHER AND/OR OBSTRUCTIONS TO VISIBILITY.


SDZ001>005-009-010-012>017-061800-
NORTHWEST AND NORTH CENTRAL SOUTH DAKOTA

CITY           SKY/WX    TMP DP  RH WIND       PRES   REMARKS
BUFFALO          N/A     69  50  50 VRB6      30.16S
FAITH            N/A     69  52  54 N5        30.18F
MOBRIDGE       SUNNY     72  54  53 N15       30.12R
$$

SDZ012>016-024>037-041>051-057-063-072>074-061800-
SOUTHWEST AND SOUTH CENTRAL SOUTH DAKOTA

CITY           SKY/WX    TMP DP  RH WIND       PRES   REMARKS
RAPID CTY ARPT PTSUNNY   64  55  72 NW13      30.24S
PIERRE         MOSUNNY   73  55  53 N18       30.11R HAZE
CUSTER         CLOUDY    57  49  74 N6        30.31R HAZE
PHILIP         CLOUDY    69  59  70 NW13      30.17S
PINE RIDGE     CLOUDY    66  55  67 N12       30.23R HAZE
SPEARFISH      CLOUDY    57  54  88 NW8       30.28S
WINNER         CLOUDY    73  57  57 N17G24    30.11R HAZE
$$

SDZ004>011-016>023-039-040-061800-
NORTHEAST SOUTH DAKOTA

CITY           SKY/WX    TMP DP  RH WIND       PRES   REMARKS
ABERDEEN       CLOUDY    68  56  65 N16       30.09R HAZE
WATERTOWN      CLOUDY    67  58  72 N21G28    30.04R HAZE
BROOKINGS      CLOUDY    64  61  88 N14G21    30.02R
SISSETON         N/A     67  54  63 N22G29    30.05R
$$

SDZ017-020-022-023-036>040-048>070-061800-
SOUTHEAST SOUTH DAKOTA

CITY           SKY/WX    TMP DP  RH WIND       PRES   REMARKS
SIOUX FALLS    CLOUDY    70  63  78 N17G28    29.97R HAZE
HURON          CLOUDY    72  62  71 N21G26    30.04R HAZE
CHAMBERLAIN    CLOUDY    71  60  66 N16G22    30.09R HAZE
MITCHELL       PTSUNNY   73  61  65 MISG      30.03R HAZE
YANKTON        MOSUNNY   70  63  78 N20G25    29.96R
$$

ABBREVIATIONS USED IN REMARKS
   TC - TEMPERATURE IN CELSIUS
  WCI - WIND CHILL INDEX
   HX - HEAT INDEX
  VSB - VISIBILITY



USA.gov is the U.S. government's official web portal to all federal, state and local government web resources and services.